Theta_e
335 330 321 316 306 301 295 299 302 304 304 308 311 312 310 313 314 306 330 338 341 342 344 345 347 348 345 343 342 341 344 345 344 343 341 339 338 336 335 334 335 337 337 338 338 340 338 337 334
332 327 316 310 300 294 295 301 303 304 308 311 312 311 310 311 323 325 329 339 342 343 344 344 345 347 344 342 342 342 344 343 342 340 339 337 336 334 333 335 335 336 337 337 337 338 340 336 334
325 324 310 305 299 295 296 301 304 307 310 309 307 313 312 313 324 326 333 340 341 341 342 342 344 346 343 341 341 340 344 342 340 340 338 336 335 334 332 332 334 335 332 335 335 335 339 336 333
316 314 310 301 298 299 302 303 306 307 309 312 313 312 318 322 325 330 339 340 338 340 341 341 344 344 342 341 340 340 341 339 339 341 339 336 335 334 333 332 330 330 331 332 333 333 335 336 334
315 309 301 298 299 302 303 306 308 307 306 309 311 311 314 325 330 333 337 339 339 338 342 342 343 344 342 341 340 340 339 339 338 342 340 337 336 335 335 332 331 330 329 327 331 331 331 333 334
309 307 298 296 299 304 306 308 308 307 308 311 312 313 313 326 329 330 336 336 339 338 339 339 337 339 341 341 341 340 340 339 341 342 341 339 338 337 335 333 332 330 329 329 330 330 329 330 331
306 303 299 298 300 303 307 310 305 307 307 309 315 310 315 322 329 330 333 335 336 337 337 337 337 336 334 336 337 338 339 340 339 340 338 340 340 339 338 337 336 331 331 331 331 329 329 329 329
307 304 299 299 300 302 307 307 310 309 308 313 317 311 311 321 328 329 332 333 333 335 336 335 335 335 334 333 331 332 335 336 336 335 333 332 335 335 334 333 335 335 334 333 333 331 329 328 328
308 300 297 298 300 302 307 306 309 311 312 314 316 316 319 326 328 326 326 327 329 332 333 334 333 333 333 332 330 328 330 331 331 330 327 327 331 332 330 329 332 336 336 336 336 335 333 330 328
301 297 300 302 301 302 305 307 308 308 308 311 315 322 324 326 325 323 323 325 325 327 329 331 332 331 332 334 331 328 329 328 328 327 325 326 327 329 330 325 327 331 331 335 336 335 332 327 322
302 298 302 303 305 305 305 304 306 306 303 311 313 319 323 323 323 323 323 325 327 328 328 331 330 331 330 331 329 327 327 326 325 325 324 324 324 323 326 325 324 322 321 324 329 329 327 324 322
300 302 303 306 306 305 303 305 303 304 306 310 316 320 322 322 322 323 323 324 325 326 329 330 331 330 330 329 327 328 326 325 324 325 325 323 322 320 319 323 323 321 321 320 320 319 321 323 322
300 302 305 305 305 304 306 302 302 302 306 314 316 318 320 321 322 323 325 325 324 324 328 330 330 330 331 330 328 327 327 326 325 325 325 325 322 321 320 319 320 319 320 319 318 318 319 320 321
302 304 303 304 304 305 303 301 303 305 306 306 310 312 313 315 318 317 318 319 320 324 325 329 330 332 331 330 330 330 328 328 326 326 326 326 325 324 322 320 320 319 320 320 319 319 318 320 321
304 299 301 301 303 303 304 300 301 305 305 306 305 305 306 307 309 312 314 316 317 319 322 324 329 331 330 330 328 330 331 329 328 327 327 327 327 325 324 322 320 320 320 319 319 318 318 317 318
299 298 293 299 303 304 303 293 301 305 303 304 304 304 305 307 308 309 311 312 312 314 315 316 316 323 329 328 328 328 328 330 330 327 328 327 327 327 324 323 322 322 321 319 317 317 316 315 315
296 289 291 296 302 301 300 295 301 304 302 301 302 303 304 305 306 308 310 307 308 307 307 308 309 309 310 313 323 328 329 329 329 329 328 328 329 330 329 328 327 326 325 324 323 321 320 317 316
290 291 292 292 296 297 297 296 300 302 301 300 300 301 301 303 305 308 307 306 305 306 306 307 309 310 311 311 310 316 325 328 327 327 327 329 330 332 330 329 328 327 326 325 324 323 322 321 320
295 293 292 292 297 294 294 295 300 303 299 299 299 300 301 303 305 305 304 304 304 304 305 307 308 309 311 309 307 309 315 321 325 326 327 329 332 331 331 330 329 327 326 326 325 324 322 322 322
296 292 291 294 297 295 294 293 297 298 299 300 300 299 300 302 302 302 302 301 302 302 303 305 305 305 307 308 309 310 313 318 322 327 327 328 329 330 330 329 329 328 327 327 325 324 322 322 323
294 293 291 291 294 294 292 290 293 298 299 301 301 303 303 302 303 300 300 299 299 299 300 302 301 302 303 305 309 315 313 317 320 323 321 316 318 318 321 324 327 328 327 326 326 324 323 321 321
291 296 295 293 290 284 291 282 288 291 293 296 299 301 302 303 302 301 298 297 298 298 299 300 299 299 300 302 305 309 312 313 318 313 310 307 307 308 311 313 314 314 317 317 320 323 323 321 318
291 295 293 292 289 286 287 284 285 290 289 292 296 297 299 301 300 298 297 297 296 296 295 295 296 295 295 296 299 304 306 308 312 306 303 302 301 302 304 306 306 307 308 311 313 311 312 314 317
297 295 293 292 290 284 287 285 283 289 292 294 294 295 297 297 296 296 296 296 294 293 293 292 292 292 292 292 293 295 297 299 301 302 300 299 298 298 299 301 301 301 303 305 306 306 305 305 305
296 291 280 282 280 279 285 285 288 290 293 293 294 294 295 295 294 293 293 292 292 291 291 291 291 290 289 289 289 291 292 293 295 296 296 295 294 294 295 296 296 297 299 298 299 299 298 298 297
293 291 282 275 276 277 283 280 284 292 295 296 297 295 294 293 293 293 292 291 291 291 290 289 289 288 287 287 287 288 289 290 292 292 292 292 292 292 293 292 292 291 292 292 293 293 294 293 292
290 288 291 283 275 276 280 283 288 291 292 292 292 294 294 294 293 292 291 291 290 289 289 288 288 287 286 285 285 285 286 286 285 286 287 288 288 289 288 288 288 288 289 289 289 290 290 290 290
291 294 286 283 275 268 276 278 282 286 290 291 292 293 294 293 292 291 290 289 288 288 288 287 287 287 285 285 284 284 284 284 284 284 284 284 285 286 286 286 286 286 287 287 288 288 288 288 289
290 288 289 288 282 275 273 277 285 288 289 291 292 294 294 294 293 290 289 289 288 287 287 286 285 285 284 284 283 283 282 282 283 282 283 283 284 284 285 285 285 285 285 286 286 286 287 287 286
293 291 290 283 276 280 281 281 289 289 291 292 293 294 293 294 292 290 289 287 286 286 285 285 283 284 283 283 282 282 281 281 280 280 281 282 282 283 283 284 284 284 284 284 285 285 285 285 284
Wind_Speed
9 7 2 4 5 6 2 3 2 1 3 3 3 11 8 4 2 3 2 9 13 11 8 9 11 11 12 9 8 6 8 12 13 12 11 12 12 11 10 10 10 10 11 10 10 8 9 10 10
6 3 4 3 6 5 3 2 6 2 5 9 8 5 6 3 2 6 5 7 12 10 7 6 10 8 11 8 7 6 10 11 10 9 9 10 10 10 8 9 10 10 10 9 8 8 10 9 9
5 1 4 5 4 5 4 3 6 3 5 5 5 5 4 2 2 6 7 11 11 9 7 6 9 10 10 9 7 5 10 9 8 9 8 8 9 10 8 7 7 8 7 8 6 8 8 9 7
3 5 5 6 4 1 8 6 4 4 4 6 5 7 4 2 6 6 12 13 11 9 8 9 10 10 10 9 8 7 7 7 5 9 8 8 8 9 8 7 4 4 5 6 6 6 6 4 7
4 4 5 4 3 3 2 5 7 4 3 5 1 3 3 3 5 9 12 11 12 8 9 9 11 10 11 10 10 9 8 7 5 10 9 8 8 8 9 8 8 5 3 3 5 3 3 3 5
5 3 5 3 3 2 4 5 5 5 4 4 6 5 1 3 5 7 8 7 11 9 8 7 8 9 10 10 10 10 9 9 6 9 9 9 10 10 9 9 8 7 6 5 4 4 3 3 2
5 4 3 6 5 3 4 4 3 5 4 2 8 5 2 4 6 7 8 7 7 8 8 7 7 8 10 10 10 10 10 11 10 10 8 10 10 11 10 9 9 9 9 8 7 6 5 5 4
5 4 4 2 5 4 2 3 6 5 2 2 5 6 5 5 8 7 6 6 6 6 7 7 6 6 6 6 10 10 10 11 11 10 9 8 10 11 11 10 9 11 10 10 10 9 7 7 7
3 5 1 1 5 5 4 5 1 2 6 3 4 4 4 10 8 7 4 3 3 3 5 6 6 6 6 6 6 9 9 9 9 8 8 7 4 6 7 7 9 11 11 10 11 10 9 8 8
5 4 0 2 2 3 3 5 6 5 3 4 4 5 5 7 6 8 7 6 5 7 6 6 6 6 6 5 6 6 6 5 5 5 5 4 5 5 6 8 11 12 11 11 12 12 11 8 4
2 3 1 3 2 2 2 3 4 8 1 6 9 9 7 4 7 8 8 8 10 8 4 7 7 7 7 6 4 3 3 3 4 6 6 5 4 4 4 3 3 4 7 4 6 5 4 6 4
2 1 2 2 2 2 2 1 4 3 7 7 11 11 8 9 9 9 9 10 8 8 10 8 8 7 7 4 4 5 5 4 4 6 7 5 4 5 4 3 4 4 4 5 5 3 5 6 6
3 2 2 2 2 2 2 3 1 3 4 6 10 10 11 10 11 8 10 9 8 8 9 9 7 8 8 6 4 5 6 5 6 6 6 6 6 6 4 5 4 4 4 4 4 4 4 5 6
0 2 1 2 2 1 2 0 3 5 5 5 8 11 10 11 13 7 7 9 9 9 9 10 10 11 8 9 8 7 6 7 6 5 7 9 7 6 6 5 5 5 4 4 4 5 5 6 5
2 1 4 0 3 3 4 4 9 8 3 8 9 9 9 11 8 11 11 10 10 8 8 10 12 7 7 8 6 6 6 6 7 7 8 9 9 8 7 6 5 5 4 6 4 4 4 4 4
4 5 2 4 6 4 8 8 11 7 4 10 9 9 9 10 10 9 9 9 8 4 5 2 3 7 8 7 5 4 5 5 7 5 6 9 8 8 7 6 5 5 4 4 4 4 4 4 4
5 3 4 7 7 4 7 7 10 8 8 10 9 9 9 9 6 8 7 2 5 5 5 4 5 4 2 2 5 6 8 7 7 5 5 6 8 10 8 7 7 8 6 5 5 5 6 5 5
6 5 5 6 3 5 7 8 9 6 7 9 7 8 9 9 11 7 6 6 7 6 5 4 3 4 4 3 3 3 4 6 4 5 5 7 6 9 8 6 4 5 5 5 5 7 4 5 4
6 4 7 3 3 2 7 11 15 12 5 9 9 8 8 9 7 5 6 6 7 5 5 5 5 5 4 3 2 2 3 3 4 5 7 8 9 8 7 4 5 4 6 8 6 5 6 5 4
5 5 4 5 6 5 7 8 9 8 7 8 9 9 11 7 5 6 6 4 4 5 5 5 5 4 3 1 2 3 3 4 3 5 6 7 6 5 5 5 4 5 5 7 7 7 4 4 4
5 11 4 5 4 4 4 12 7 7 8 11 10 14 13 15 15 8 7 5 4 5 4 4 4 5 3 5 3 3 3 2 1 2 4 7 8 8 7 5 1 3 4 5 7 7 9 6 3
12 6 5 4 0 5 3 14 8 5 8 6 10 14 16 17 8 8 7 5 5 4 4 4 3 4 4 6 3 3 3 2 3 4 5 6 8 8 7 6 6 5 4 4 3 3 3 4 4
5 7 7 5 4 4 3 6 5 4 6 10 16 12 11 10 9 11 9 7 5 5 4 3 4 6 6 6 5 3 4 4 4 5 7 7 7 8 7 7 7 6 4 4 5 6 6 4 3
6 5 3 2 3 10 10 8 7 10 15 13 7 9 9 6 8 8 6 6 5 4 4 3 5 5 6 6 7 6 6 4 5 5 4 4 4 4 7 7 6 6 4 5 5 7 8 6 6
7 11 1 5 4 8 3 10 17 4 7 8 9 11 7 8 10 10 9 7 6 6 5 4 5 5 5 6 6 5 5 6 6 5 4 5 3 3 5 5 5 5 5 6 6 7 8 7 7
13 9 6 8 6 5 4 11 8 9 10 8 12 5 6 5 6 8 8 7 7 7 6 6 5 4 4 5 5 4 5 3 4 5 4 4 4 4 5 6 7 7 6 6 6 5 6 6 6
6 13 6 3 3 2 6 7 9 10 11 6 5 6 10 10 9 9 7 7 7 6 7 7 6 5 4 4 4 5 5 6 5 6 5 3 3 4 5 6 6 6 7 7 6 6 6 6 6
8 7 6 3 3 5 7 6 11 4 8 5 5 10 7 5 7 7 6 6 6 6 6 6 6 6 5 5 5 4 5 5 5 5 5 5 4 4 5 6 6 6 6 6 6 6 5 8 6
6 5 5 3 6 6 3 8 8 14 8 7 8 7 6 8 8 7 7 7 7 6 6 6 6 7 6 5 4 5 4 5 5 4 4 4 5 5 6 6 6 6 6 5 5 5 6 8 9
15 14 16 8 6 5 8 17 3 6 6 6 7 8 8 8 7 8 8 8 8 8 7 7 6 6 6 5 5 5 5 5 5 4 4 4 5 5 6 6 6 5 5 5 6 6 5 7 8
Wind_Direction
323 305 166 51 59 68 36 352 143 160 61 11 46 89 112 79 67 172 51 128 128 141 147 142 149 151 129 132 130 134 131 141 133 132 133 130 126 122 117 116 115 112 106 90 77 75 109 106 98
311 307 47 83 85 75 295 291 103 105 119 116 94 93 54 72 85 120 97 144 137 139 140 136 153 142 130 136 141 134 150 137 136 140 140 134 128 116 123 120 121 129 112 99 80 55 144 121 111
277 9 79 88 105 141 161 227 148 157 147 157 100 66 99 69 63 152 143 141 136 140 141 147 154 137 134 141 149 138 151 143 148 152 142 145 140 130 136 124 111 131 123 113 91 68 133 131 121
357 8 29 77 98 33 150 201 148 120 39 60 121 66 52 297 172 155 144 141 138 146 149 151 148 142 142 150 158 155 148 145 168 172 151 157 157 149 150 139 122 121 97 126 101 86 78 140 118
31 55 59 66 68 95 92 179 149 109 88 34 55 103 89 9 106 120 144 151 137 152 147 152 158 155 158 162 167 170 168 167 197 181 160 171 171 168 166 156 158 143 129 143 104 119 116 96 157
40 80 74 123 168 141 87 160 134 98 85 160 71 95 97 161 128 145 149 146 144 150 152 153 166 167 169 173 176 175 177 172 170 168 177 185 185 181 184 183 183 184 177 181 173 179 180 175 182
91 68 158 141 149 52 119 111 85 107 129 39 143 88 154 182 189 148 157 139 145 153 155 166 174 179 182 184 187 187 187 178 172 165 172 195 194 190 186 192 194 196 198 195 198 202 208 218 218
95 83 50 77 175 180 165 85 121 98 89 112 138 158 188 208 190 124 135 147 158 173 171 175 184 185 189 191 198 196 198 194 190 186 187 194 200 201 194 193 206 209 211 212 208 208 215 226 234
61 65 49 13 167 176 178 120 133 87 91 48 5 132 185 143 133 109 103 96 149 206 209 180 189 198 198 201 208 206 207 205 207 203 199 199 199 202 200 200 204 213 214 213 211 208 213 222 235
71 88 136 295 144 171 132 127 142 105 101 37 49 36 87 127 141 149 165 179 200 206 216 201 199 201 199 212 203 205 211 205 206 210 214 214 210 206 201 206 211 215 220 216 216 215 212 215 220
64 149 238 336 53 68 100 103 139 122 186 191 181 169 162 157 172 176 193 196 207 209 216 209 204 207 200 208 194 193 200 200 205 209 207 212 217 229 225 222 227 226 226 221 220 220 212 212 213
75 143 344 196 30 76 80 308 85 142 208 180 175 163 164 174 190 199 207 213 214 207 221 220 212 208 212 202 198 200 197 202 214 215 204 195 209 218 225 220 221 214 220 215 217 215 225 228 225
182 237 44 54 101 86 45 45 107 164 220 155 149 166 181 190 202 213 214 220 218 218 221 222 212 218 222 211 201 198 206 202 213 209 211 197 205 214 206 217 214 213 209 208 219 222 225 232 232
65 219 115 197 220 122 151 75 12 241 170 176 166 190 194 193 207 215 213 229 215 218 214 214 214 217 208 213 213 211 202 209 207 215 215 209 210 213 214 213 210 217 208 209 214 216 220 231 220
188 211 348 108 197 215 124 302 233 229 178 206 219 221 219 217 196 205 203 205 202 212 215 209 216 224 220 220 220 218 216 205 212 213 211 213 208 209 208 213 214 216 210 217 219 237 233 239 237
153 72 128 282 166 240 128 256 250 247 218 250 246 245 227 232 215 211 217 214 219 206 217 247 212 203 207 215 224 228 230 220 219 210 211 212 214 206 204 213 217 212 212 206 207 213 231 230 232
357 174 178 291 211 194 187 240 257 228 193 241 244 247 247 256 247 227 227 224 117 107 101 78 55 63 35 270 237 226 231 224 225 210 208 218 215 216 215 221 224 206 209 214 224 228 222 226 226
198 215 216 203 254 192 234 248 268 267 202 234 256 255 250 238 243 208 157 132 109 86 81 74 55 18 345 296 256 257 240 236 220 216 210 210 218 210 198 221 226 204 205 211 209 222 210 226 214
180 194 214 223 248 222 237 246 250 245 246 251 248 258 259 242 255 177 143 131 118 77 72 47 39 9 22 8 334 310 240 219 221 216 219 220 227 195 189 210 202 200 218 227 221 219 227 241 206
189 192 233 280 264 198 275 259 246 250 233 229 239 249 243 251 202 179 150 134 118 113 70 52 35 5 359 347 278 257 255 259 229 210 210 230 232 214 198 217 218 194 221 230 218 202 214 231 184
218 223 187 231 325 264 309 277 243 242 225 230 233 239 242 230 234 180 178 154 106 85 82 76 31 11 358 336 303 288 247 258 317 73 77 38 56 49 54 45 319 254 223 242 240 228 219 229 222
224 188 182 210 35 250 101 281 251 251 256 235 249 244 244 242 221 174 156 161 151 135 102 87 56 30 11 348 342 292 268 145 58 74 94 78 61 62 60 68 59 55 42 37 21 304 230 218 235
203 162 185 201 226 284 216 283 276 233 271 253 251 261 239 229 180 160 164 161 153 128 113 105 80 46 22 13 10 26 51 79 99 91 84 70 59 53 44 58 60 53 54 36 58 53 49 37 47
165 115 114 71 184 248 221 208 204 220 231 252 249 259 251 177 142 136 139 140 140 121 112 108 83 53 35 30 22 48 70 76 91 94 89 81 70 46 47 59 56 54 37 58 56 61 46 58 66
175 151 159 199 217 240 264 202 252 277 274 235 252 258 235 162 153 151 156 161 161 154 154 126 96 70 50 47 38 37 63 67 83 84 86 92 79 60 53 58 63 64 66 70 77 76 72 64 74
198 175 161 196 206 247 196 228 257 230 250 248 238 249 142 174 165 170 169 170 167 165 152 127 119 108 78 70 57 47 52 64 77 82 93 85 89 75 64 69 62 53 52 57 59 70 76 74 72
190 210 173 92 22 37 234 289 290 247 264 259 256 171 192 193 191 183 171 179 173 166 165 157 144 133 127 116 95 68 68 74 76 69 72 73 72 87 65 63 65 54 58 66 69 74 73 69 68
178 158 183 164 224 257 257 264 239 317 242 252 218 219 209 188 182 187 189 176 178 177 170 157 162 166 159 135 120 108 101 95 96 93 93 88 82 83 79 74 65 56 54 62 74 85 83 101 89
161 184 206 166 187 197 265 256 225 232 228 243 245 243 224 212 203 187 190 194 186 179 173 177 172 164 163 147 130 119 112 100 91 98 102 100 93 87 84 77 73 67 61 51 77 81 89 90 92
223 212 195 194 247 245 251 260 316 193 130 158 228 236 225 217 185 187 199 192 195 194 189 188 177 174 172 158 141 135 125 117 109 103 99 92 87 75 89 83 78 70 63 54 71 83 76 85 89